This demonstration page uses our WeatherBlox Daily Observations layout. Learn more.

Hourly Observations for September 26, 2015

Temp ( °F °C ) Dew Point ( °F °C ) Humidity (%) Winds ( mph kmh ) Pressure ( in mb ) Visibility ( mi km ) Precip ( " mm )
12:15 am 00:15 Cloudy 62 16.7 61 16 96 96 E 5 7 30.15 1021 7 11.26538 0 0
12:55 am 00:55 Cloudy 62 16.7 61 16 96 96 Calm 30.15 1021 7 11.26538 0 0
1:15 am 01:15 Cloudy 62 16.6 60 15.8 95 95 Calm 30.15 1021 7 11.26538 0 0
1:35 am 01:35 Cloudy 62 16.5 60 15.7 95 95 Calm 30.15 1021 7 11.26538 0 0
1:55 am 01:55 Cloudy 62 16.5 60 15.7 95 95 E 3 6 30.15 1021 7 11.26538 0 0
2:15 am 02:15 Cloudy with Mist and Fog 62 16.6 60 15.8 95 95 Calm 30.15 1021 5 8.0467 0 0
2:35 am 02:35 Cloudy 62 16.7 61 16 96 96 Calm 30.15 1021 7 11.26538 0 0
2:55 am 02:55 Cloudy 62 16.9 61 16.1 95 95 E 3 6 30.15 1021 7 11.26538 0 0
3:15 am 03:15 Cloudy 63 17 61 16.1 94 94 Calm 30.15 1021 7 11.26538 0 0
3:35 am 03:35 Cloudy 63 17 61 16 94 94 ESE 3 6 30.15 1021 7 11.26538 0 0
3:55 am 03:55 Cloudy 62 16.6 60 15.7 94 94 E 3 6 30.15 1021 7 11.26538 0 0
4:15 am 04:15 Cloudy with Mist and Fog 62 16.7 61 15.9 95 95 ENE 3 6 30.15 1021 5 8.0467 0 0
4:35 am 04:35 Cloudy 62 16.6 60 15.7 94 94 E 6 9 30.15 1021 7 11.26538 0 0
4:55 am 04:55 Cloudy with Mist and Fog 62 16.5 60 15.6 94 94 E 3 6 30.15 1021 5 8.0467 0 0
5:15 am 05:15 Mostly Cloudy with Mist and Fog 61 16 59 15.1 94 94 E 5 7 30.12 1020 4 6.43736 0 0
5:35 am 05:35 Cloudy with Mist and Fog 60 15.7 59 14.9 95 95 Calm 30.12 1020 2.5 4.02335 0 0
5:55 am 05:55 Cloudy with Mist and Fog 61 16 60 15.3 96 96 E 3 6 30.12 1020 3 4.82802 0 0
6:15 am 06:15 Cloudy with Fog 61 16.3 60 15.6 96 96 Calm 30.12 1020 0.5 0.80467 0 0
6:35 am 06:35 Cloudy with Fog 61 16.1 60 15.5 96 96 E 3 6 30.12 1020 0.25 0.402335 0 0
6:55 am 06:55 Cloudy with Fog 60 15.8 59 15.2 96 96 Calm 30.12 1020 0.25 0.402335 0 0
7:15 am 07:15 Cloudy with Fog 60 15.8 59 15.2 96 96 E 3 6 30.12 1020 0.5 0.80467 0 0
7:35 am 07:35 Cloudy with Fog 60 15.5 59 15 97 97 Calm 30.12 1020 0.25 0.402335 0 0
7:55 am 07:55 Cloudy with Fog 60 15.5 59 15 97 97 Calm 30.15 1021 5 8.0467 0 0
8:15 am 08:15 Cloudy with Fog 60 15.6 59 15 96 96 Calm 30.15 1021 5 8.0467 0 0
8:35 am 08:35 Cloudy with Fog 60 15.7 59 15.1 96 96 Calm 30.15 1021 5 8.0467 0 0
8:55 am 08:55 Cloudy with Fog 60 15.7 59 15.1 96 96 ESE 3 6 30.15 1021 5 8.0467 0 0
9:15 am 09:15 Cloudy with Fog 60 15.6 59 15 96 96 ESE 3 6 30.15 1021 5 8.0467 0 0
9:35 am 09:35 Cloudy with Fog 60 15.7 59 15.2 97 97 Calm 30.15 1021 5 8.0467 0 0
9:55 am 09:55 Cloudy with Fog 61 15.9 60 15.3 96 96 Calm 30.15 1021 0.25 0.402335 0 0
10:15 am 10:15 Cloudy with Mist and Fog 61 16.1 60 15.6 97 97 SE 3 6 30.15 1021 1.5 2.41401 0 0
10:35 am 10:35 Cloudy with Mist and Fog 62 16.4 60 15.8 96 96 ESE 5 7 30.12 1020 5 8.0467 0 0
10:55 am 10:55 Cloudy 62 16.7 61 16.1 96 96 SE 8 13 30.12 1020 10 16.0934 0 0
11:15 am 11:15 Cloudy 62 16.8 61 16.2 96 96 SE 6 9 30.12 1020 10 16.0934 0 0
11:35 am 11:35 Cloudy 63 17.1 62 16.4 96 96 SSE 7 11 30.12 1020 10 16.0934 0 0
11:55 am 11:55 Cloudy 64 17.5 62 16.7 95 95 SE 7 11 30.09 1019 10 16.0934 0 0
12:15 pm 12:15 Mostly Cloudy 65 18.1 62 16.5 90 90 S 8 13 30.09 1019 10 16.0934 0 0
12:35 pm 12:35 Mostly Cloudy 67 19.3 62 16.4 83 83 SSW 8 13 30.09 1019 10 16.0934 0 0
12:55 pm 12:55 Cloudy 70 21 60 15.5 71 71 S 7 11 30.06 1018 10 16.0934 0 0
1:15 pm 13:15 Mostly Cloudy 72 22.2 59 15 64 64 S 12 19 30.06 1018 10 16.0934 0 0
1:35 pm 13:35 Mostly Cloudy 71 21.9 59 14.8 64 64 S 9 15 30.03 1017 10 16.0934 0 0
1:55 pm 13:55 Mostly Cloudy 73 22.6 58 14.6 61 61 S 9 15 30.03 1017 10 16.0934 0 0
2:15 pm 14:15 Mostly Cloudy 72 22.4 58 14.4 61 61 SSE 6 9 30.03 1017 10 16.0934 0 0
2:35 pm 14:35 Mostly Cloudy 73 22.7 57 14.1 58 58 SSW 8 13 30.03 1017 10 16.0934 0 0
2:55 pm 14:55 Mostly Cloudy 74 23.4 58 14.4 57 57 S 10 17 30.03 1017 10 16.0934 0 0
3:15 pm 15:15 Partly Cloudy 75 23.7 57 13.9 54 54 S 12 19 30.03 1017 10 16.0934 0 0
3:35 pm 15:35 Mostly Cloudy 76 24.6 57 13.9 51 51 SSW 9 15 30 1016 10 16.0934 0 0
3:55 pm 15:55 Partly Cloudy 76 24.4 56 13.5 51 51 SSE 9 15 29.97 1015 10 16.0934 0 0
4:15 pm 16:15 Mostly Cloudy 76 24.5 57 13.9 52 52 S 9 15 29.97 1015 10 16.0934 0 0
4:35 pm 16:35 Partly Cloudy 75 23.9 55 12.7 50 50 S 7 11 29.97 1015 10 16.0934 0 0
4:55 pm 16:55 Partly Cloudy 76 24.5 55 12.8 48 48 S 10 17 29.97 1015 10 16.0934 0 0
5:15 pm 17:15 Partly Cloudy 76 24.7 56 13.1 49 49 S 13 20 29.97 1015 10 16.0934 0 0
5:35 pm 17:35 Sunny 76 24.5 55 12.9 48 48 SSW 15 24 29.94 1014 10 16.0934 0 0
5:55 pm 17:55 Sunny 76 24.4 56 13.1 49 49 SSW 10 17 29.94 1014 10 16.0934 0 0
6:15 pm 18:15 Sunny 75 24 56 13.1 51 51 SSW 9 15 29.94 1014 10 16.0934 0 0
6:35 pm 18:35 Sunny 75 23.7 56 13.1 52 52 SSW 9 15 29.94 1014 10 16.0934 0 0
6:55 pm 18:55 Sunny 74 23.3 56 13.3 54 54 S 8 13 29.97 1015 10 16.0934 0 0
7:15 pm 19:15 Sunny 72 22.3 56 13.5 58 58 S 3 6 29.97 1015 10 16.0934 0 0
7:35 pm 19:35 Clear 70 20.9 56 13.6 63 63 S 5 7 29.97 1015 10 16.0934 0 0
7:55 pm 19:55 Clear 68 20 57 13.7 67 67 SSE 5 7 30 1016 10 16.0934 0 0
8:15 pm 20:15 Clear 66 19 56 13.6 71 71 SSE 5 7 30 1016 10 16.0934 0 0
8:35 pm 20:35 Clear 65 18.6 56 13.4 72 72 SSE 3 6 30 1016 10 16.0934 0 0
8:55 pm 20:55 Clear 64 17.6 56 13.2 76 76 SSE 3 6 30 1016 10 16.0934 0 0
9:15 pm 21:15 Clear 63 17.4 56 13.1 76 76 SSE 6 9 30 1016 10 16.0934 0 0
9:35 pm 21:35 Clear 63 17.1 55 13 77 77 SSE 7 11 30 1016 10 16.0934 0 0
9:55 pm 21:55 Clear 62 16.5 55 12.8 79 79 SSE 6 9 30 1016 10 16.0934 0 0
10:15 pm 22:15 Clear 60 15.6 55 12.5 82 82 SSE 6 9 30.03 1017 10 16.0934 0 0
10:35 pm 22:35 Clear 61 16 55 12.6 80 80 SSE 6 9 30.03 1017 10 16.0934 0 0
10:55 pm 22:55 Clear 60 15.7 55 12.6 82 82 SSE 7 11 30.03 1017 10 16.0934 0 0
11:15 pm 23:15 Clear 60 15.8 54 12.3 80 80 SSE 8 13 30.03 1017 10 16.0934 0 0
11:35 pm 23:35 Clear 60 15.8 54 12.2 79 79 SSE 9 15 30.03 1017 10 16.0934 0 0
11:55 pm 23:55 Clear 61 15.9 54 12 78 78 SSE 6 9 30.03 1017 10 16.0934 0 0

Powered by AerisWeather